[Iaude] MPEC V104: 2023 VC3 [a=1.75,e=0.60,i=1.7,H=25.9]

mpec at marsden.cfa.harvard.edu mpec at marsden.cfa.harvard.edu
Tue Nov 7 20:55:27 EST 2023


M.P.E.C. 2023-V104                             Issued 2023 November 8, 01:53 UT

     The Minor Planet Electronic Circulars contain information on unusual
         minor planets, routine data on comets and natural satellites,
         and occasional editorial announcements.  They are published
    on behalf of Division F of the International Astronomical Union by the
          Minor Planet Center, Smithsonian Astrophysical Observatory,
                          Cambridge, MA 02138, U.S.A.
			  
             Prepared using the Tamkin Foundation Computer Network

                              MPC at CFA.HARVARD.EDU
            URL https://www.minorplanetcenter.net/    ISSN 1523-6714

                                    2023 VC3                                    


Observations:
     K23V03C*1C2023 11 05.39294403 46 04.850+09 43 58.69         20.40GVEV104G96
     K23V03C 1C2023 11 05.39809503 46 01.776+09 44 07.48         20.71GVEV104G96
     K23V03C 1C2023 11 05.40324503 45 58.676+09 44 15.90         20.65GVEV104G96
     K23V03C 1C2023 11 05.40839303 45 55.570+09 44 23.68         20.79GVEV104G96
     K23V03C KC2023 11 05.45358703 45 28.670+09 45 35.46         20.63GVEV104I52
     K23V03C KC2023 11 05.45465703 45 28.076+09 45 37.80         20.44GVEV104I52
     K23V03C KC2023 11 05.45572203 45 27.461+09 45 39.53         20.53GVEV104I52
     K23V03C KC2023 11 05.45680403 45 26.809+09 45 40.57         20.53GVEV104I52
     K23V03C pC2023 11 06.08097903 40 15.57 +10 00 54.8          20.6 GVEV104L01
     K23V03C pC2023 11 06.08350203 40 14.31 +10 00 58.2          21.1 GVEV104L01
     K23V03C pC2023 11 06.08602603 40 13.04 +10 01 02.6          21.0 GVEV104L01
     K23V03C KC2023 11 06.19685903 39 29.32 +10 03 43.3          21.0 GVEV104H21
     K23V03C KC2023 11 06.19965503 39 27.97 +10 03 47.6          20.7 GVEV104H21
     K23V03C KC2023 11 06.20245003 39 26.61 +10 03 51.5          20.4 GVEV104H21
     K23V03C KC2023 11 06.20589803 39 24.92 +10 03 56.2          20.6 GVEV104H21
     K23V03C KC2023 11 06.31059203 38 37.428+10 06 25.24         21.00GVEV104I52
     K23V03C KC2023 11 06.31314803 38 36.215+10 06 28.62         20.63GVEV104I52
     K23V03C KC2023 11 06.32683703 38 29.695+10 06 46.15         20.67GVEV104I52
     K23V03C KC2023 11 06.32941503 38 28.446+10 06 49.18         20.90GVEV104I52
     K23V03C  C2023 11 07.39403203 31 47.907+10 26 42.06         21.17wXEV104F52
     K23V03C  C2023 11 07.40511903 31 43.774+10 26 53.35         21.35wXEV104F52
     K23V03C  C2023 11 07.42762003 31 35.389+10 27 15.14         21.26wXEV104F52

Observer details:
F52 Pan-STARRS 2, Haleakala.  Observers J. Bulger, T. Lowe, P. Minguez, A.
    Schultz, I. Smith.  Measurers K. Chambers, T. de Boer, J. Fairlamb, H.
    Gao, M. Huber, C.-C. Lin, E. Magnier, Y. Ramanjooloo, R. Wainscoat, R.
    Weryk.  1.8-m Ritchey-Chretien + CCD.
G96 Mt. Lemmon Survey.  Observer J. B. Fazekas.  Measurers E. C. Beshore, D.
    Fay, J. B. Fazekas, D. C. Fuls, A. R. Gibbs, A. D. Grauer, H. Groeller, J.
    K. Hogan, R. A. Kowalski, S. M. Larson, G. J. Leonard, D. Rankin, R. L.
    Seaman, F. C. Shelly, K. W. Wierzchos.  1.5-m reflector + 10K CCD.
H21 Astronomical Research Observatory, Westfield.  Observer R. Holmes.
    Measurers T. Linder, R. Holmes, L. Horn.  0.76-m f/3.0 astrograph + CCD.
I52 Steward Observatory, Mt. Lemmon Station.  Observer R. A. Kowalski.
    Measurers E. C. Beshore, D. Fay, J. B. Fazekas, D. C. Fuls, A. R. Gibbs,
    A. D. Grauer, H. Groeller, J. K. Hogan, R. A. Kowalski, S. M. Larson, G.
    J. Leonard, D. Rankin, R. L. Seaman, F. C. Shelly, K. W. Wierzchos.  1.0-m
    prime focus + CCD.
L01 Visnjan Observatory, Tican.  Observer K. Korlevic.  1.0-m f/2.9 reflector
    + CCD.

Orbital elements:
2023 VC3                                                 Earth MOID = 0.0071 AU
Epoch 2023 Sept. 13.0 TT = JDT 2460200.5                Veres                   
M 359.87523              (2000.0)            P               Q                  
n   0.42400243     Peri.  115.73630     +0.75658930     +0.65377950             
a   1.7547846      Node   203.44252     -0.61025630     +0.69936827             
e   0.6027909      Incl.    1.73446     -0.23486141     +0.28888819             
P   2.32           H   25.91          G   0.15           U   8                  
Residuals in seconds of arc
231105 G96  0.6-  0.1+    231106 L01  0.6+  0.4-    231106 I52  0.0   0.1+
231105 G96  0.0   0.4+    231106 L01  0.2+  0.3-    231106 I52  0.1+  0.1+
231105 G96  0.2+  0.4+    231106 L01  0.2-  0.8+    231106 I52  0.2-  0.1-
231105 G96  0.2+  0.2-    231106 H21 (0.3-  0.9+)   231107 F52  0.1-  0.2-
231105 I52  0.5-  0.6-    231106 H21 (0.3-  1.4+)   231107 F52  0.0   0.1+
231105 I52  0.0   0.1+    231106 H21 (0.4-  1.5+)   231107 F52  0.1+  0.0
231105 I52  0.1+  0.1+    231106 H21 (0.7-  1.5+)
231105 I52  0.1-  0.5-    231106 I52  0.1-  0.0

Ephemeris:
2023 VC3                 a,e,i = 1.75, 0.60, 2                   q = 0.6970
Date    TT    R. A. (2000) Decl.     Delta      r    Elong.  Phase     V
2023 10 09    14 25 09.6 -12 41 42   0.2161  0.8048    23.1   150.9    30.7
...
2023 10 24    13 46 13.2 -14 07 07   0.06233 0.9326     3.0   176.8
...
2023 11 01    05 34 48.5 +03 22 20   0.02370 1.0085   131.4    47.6    19.6
...
2023 11 07    03 34 02.8 +10 20 27   0.07751 1.0669   167.0    12.0    21.2
2023 11 08    03 28 37.3 +10 35 59   0.08716 1.0767   169.0    10.1    21.4
2023 11 09    03 24 14.9 +10 48 24   0.09690 1.0865   170.7     8.5    21.6
...
2023 11 15    03 09 21.8 +11 32 10   0.1570  1.1453   172.9     6.1    22.7
...
2023 11 23    03 01 45.0 +12 05 25   0.2419  1.2234   165.6    11.6    24.0
...
2023 12 08    03 00 03.7 +13 01 59   0.4190  1.3664   150.8    20.6    25.7

M. P. C. Staff               (C) Copyright 2023 MPC           M.P.E.C. 2023-V104




More information about the Iaude mailing list